GFSSW_925_spd_015.txt.gz
Wind_Speed
1 2 2 3 4 4 5 5 6 6 7 8 9 10 12 14 15 9 4 4 3 6 7 8 4 1 1 1 2 3 4 2 3 5 2 4 4 4 4 3 2 5 5 6 5
2 2 3 4 5 6 7 7 7 8 9 9 9 11 12 15 15 7 4 4 5 9 10 8 4 5 2 2 0 4 3 5 1 1 3 5 2 3 4 8 8 5 5 8 4
2 3 3 4 5 6 6 7 8 10 10 10 10 10 11 12 4 2 2 4 5 11 6 6 5 5 1 3 3 4 5 2 5 4 1 2 7 4 5 3 10 9 6 10 3
3 3 3 3 4 6 7 8 11 12 12 11 11 9 8 4 3 1 3 5 8 11 3 1 1 2 2 3 5 3 7 4 5 5 4 3 3 9 5 10 10 10 9 5 8
4 3 3 3 4 6 7 9 11 14 14 12 10 7 3 1 6 2 2 6 9 10 4 3 2 3 3 3 5 4 3 4 6 9 7 5 6 5 12 14 11 12 10 8 7
6 4 4 4 5 7 8 11 13 15 15 13 9 3 2 3 3 3 3 7 7 7 4 5 3 4 3 2 0 2 3 6 7 12 5 6 4 2 10 7 9 7 8 9 15
6 5 5 5 6 8 10 12 16 17 15 10 5 5 2 9 4 3 3 4 5 4 2 2 3 3 2 4 2 2 4 8 10 5 6 6 4 6 11 8 8 3 8 13 13
8 6 6 7 8 10 12 14 16 16 10 7 4 5 5 4 5 4 4 3 7 5 1 3 5 3 2 1 5 3 1 2 6 4 3 3 7 8 11 7 17 7 8 10 13
8 7 6 7 9 10 13 16 15 8 2 4 3 2 5 4 3 6 6 2 5 3 3 3 4 4 2 4 4 2 3 6 7 2 3 3 6 10 9 8 9 8 11 10 11
8 8 5 8 8 11 16 15 7 1 0 1 1 2 2 3 3 3 6 11 3 4 4 3 4 2 3 3 5 5 4 4 4 4 3 4 9 8 12 13 4 10 9 11 13
8 7 7 8 9 10 15 6 3 1 2 6 4 4 4 4 5 2 4 6 4 2 4 2 4 6 11 11 4 2 3 4 5 9 2 8 6 9 10 12 8 8 10 11 12
12 10 9 8 7 8 8 0 2 2 6 9 12 6 3 6 3 2 8 5 4 4 5 4 5 13 7 5 6 6 5 6 5 5 1 7 9 9 13 6 8 13 9 10 9
13 11 11 7 8 5 1 2 2 3 2 6 1 2 4 4 1 5 7 4 4 6 8 8 8 5 6 6 7 4 5 4 8 5 3 3 7 8 3 12 13 9 11 10 11
15 13 9 6 4 4 2 3 2 3 2 4 2 1 2 1 1 1 0 2 4 9 5 6 10 7 6 6 6 4 5 5 5 2 4 3 6 6 4 7 5 7 8 8 10
17 14 13 9 2 4 4 3 2 1 4 2 2 0 2 4 6 1 1 2 3 3 4 6 4 4 5 6 8 8 3 2 2 2 3 3 1 7 9 4 6 6 7 8 8
19 20 15 9 10 5 5 3 1 2 7 3 3 4 4 3 2 3 2 1 0 2 3 5 2 3 5 1 2 5 2 3 4 3 2 7 7 5 5 8 6 6 8 9 7
22 22 18 12 4 13 8 3 2 4 3 4 4 4 5 5 4 5 5 4 5 2 1 2 4 3 3 2 4 3 5 2 1 0 6 5 2 8 4 5 9 12 8 8 6
23 20 17 11 9 13 8 3 8 7 5 1 3 3 4 7 4 6 4 3 6 3 2 5 4 8 5 6 6 5 6 4 5 3 4 5 5 4 4 11 14 9 8 7 6
24 16 10 11 10 14 3 4 7 5 4 7 3 4 5 5 4 5 7 6 8 9 9 5 5 2 2 2 6 4 4 2 3 1 2 4 5 2 5 7 9 9 7 6 6
20 8 7 13 13 8 3 5 5 5 1 1 8 7 7 7 6 7 6 1 4 3 0 2 2 3 1 3 2 2 5 2 2 2 4 5 5 5 5 7 6 8 8 6 5
11 3 8 12 13 2 4 6 5 4 3 1 3 3 4 3 7 6 4 0 3 2 4 3 4 3 5 5 7 2 2 3 3 4 4 2 5 3 6 8 9 7 7 8 7
6 4 11 17 2 2 4 7 2 3 2 6 4 5 5 4 4 7 7 6 6 7 6 1 4 4 8 4 5 5 5 4 3 5 3 4 8 4 8 7 9 8 9 10 9
4 3 9 7 5 5 4 6 6 4 8 7 7 7 5 6 4 7 5 1 8 5 8 5 1 2 9 3 3 2 3 4 3 3 9 8 9 3 6 7 9 10 10 11 9
3 4 2 3 1 3 7 9 8 10 7 6 5 5 4 4 5 4 5 3 3 3 6 6 4 6 8 4 3 3 6 3 4 4 4 10 11 17 9 5 7 9 9 9 9
2 4 4 5 7 10 2 4 14 9 6 9 5 8 6 8 5 7 6 4 3 7 3 5 5 4 4 4 2 3 7 11 5 11 8 20 15 18 12 2 2 1 2 7 7
3 3 1 3 6 14 15 7 8 2 8 6 9 8 13 13 9 6 5 3 3 0 3 1 2 2 4 3 4 7 14 11 14 16 14 18 21 18 3 3 2 2 4 5 5
1 2 1 4 5 9 13 19 12 8 1 2 8 7 5 6 3 5 4 4 4 5 3 4 5 3 6 2 2 7 17 17 12 13 7 11 11 3 4 4 4 3 2 2 3

GFSSW_925_spd_021.txt.gz
Wind_Speed
3 2 2 3 3 4 4 5 5 6 7 8 10 11 12 15 15 12 4 2 0 4 4 5 3 4 4 3 4 3 4 1 2 2 2 4 5 2 3 1 4 3 1 4 9
5 4 4 4 4 4 5 5 5 6 8 9 10 11 12 15 14 7 2 3 2 6 6 4 2 3 3 2 3 4 3 6 3 3 2 3 1 3 5 7 2 3 7 10 13
7 6 6 6 5 5 5 5 6 8 9 10 11 12 12 12 5 2 2 4 6 8 5 5 3 2 2 2 0 2 4 5 3 4 3 2 2 3 1 6 4 4 9 10 12
9 7 6 5 5 5 5 6 7 8 10 11 12 11 9 5 2 1 2 5 9 9 6 4 3 2 2 2 1 0 4 3 2 3 2 3 2 5 5 8 6 4 3 5 8
9 8 7 6 5 5 6 7 9 10 12 12 12 9 3 2 6 2 2 5 9 10 4 4 4 4 3 2 1 2 3 3 6 7 5 2 6 5 9 7 5 9 11 9 9
11 10 9 7 6 6 7 8 10 11 14 14 11 6 2 3 2 1 1 5 6 7 3 5 5 4 3 2 3 2 3 6 7 7 4 4 2 2 3 8 8 9 9 8 10
13 12 10 8 7 7 8 9 11 13 14 12 9 2 1 9 2 2 3 4 5 4 3 2 2 3 2 1 1 1 5 7 7 2 5 6 0 7 5 8 7 8 7 8 10
15 13 11 9 8 8 9 11 13 14 13 9 2 4 6 3 3 4 4 5 5 5 4 3 3 4 1 1 6 3 3 4 3 3 1 4 8 6 2 8 7 6 6 7 8
16 15 13 10 9 8 10 12 14 10 2 1 2 1 6 2 3 4 5 5 7 6 4 4 3 3 4 5 4 4 3 4 8 3 2 3 6 7 6 7 6 6 6 6 7
17 16 14 11 9 8 10 12 8 2 2 1 1 2 1 3 4 5 5 9 4 5 4 5 5 3 3 4 5 5 4 4 6 2 2 3 8 8 6 3 7 7 6 6 7
19 17 14 11 9 9 8 5 2 2 3 8 4 3 3 4 4 3 5 7 4 5 4 2 4 7 13 11 3 4 4 5 4 4 1 7 6 12 4 4 6 7 7 7 7
20 18 14 12 11 9 8 3 3 1 5 9 5 5 3 7 3 3 9 5 4 5 5 4 7 13 4 5 6 2 1 7 5 4 6 7 8 10 4 2 3 9 6 7 6
22 19 17 13 13 11 9 6 2 1 1 6 5 4 3 8 4 7 9 4 4 6 8 8 6 4 6 5 6 4 7 3 6 4 3 4 6 7 3 5 9 7 7 6 7
24 22 18 14 6 8 5 11 5 3 2 6 5 4 4 6 3 1 6 4 2 10 7 6 5 4 3 5 7 5 8 8 7 3 5 3 5 5 5 4 4 6 6 6 6
26 25 22 21 3 6 4 13 8 3 5 2 3 2 2 5 6 1 0 2 7 7 7 7 4 4 5 8 6 6 2 5 2 2 2 3 2 6 5 3 5 5 6 6 5
30 28 24 22 18 5 13 14 5 4 9 3 4 5 5 2 2 2 2 3 1 3 1 6 1 4 7 3 6 4 4 6 4 2 1 9 8 3 4 2 5 5 6 7 7
33 31 32 28 10 18 18 7 3 7 1 6 5 5 4 5 4 5 5 5 6 5 5 2 5 3 3 3 2 3 6 2 3 2 6 1 2 7 1 2 6 14 10 7 5
34 34 36 35 25 25 16 2 11 9 10 4 5 4 8 7 4 6 6 4 6 1 3 5 4 9 5 8 7 7 8 6 7 3 4 1 6 5 1 2 6 13 11 7 7
37 38 31 35 35 36 8 8 9 7 7 10 3 5 5 5 5 4 8 6 8 11 7 5 5 1 4 4 5 5 4 4 5 3 2 4 4 0 2 5 6 7 7 9 8
36 27 32 36 41 27 10 19 9 6 7 6 12 8 10 8 8 8 9 5 5 10 4 4 3 2 2 3 2 3 5 3 2 2 4 4 6 5 7 7 7 8 10 7 7
27 6 13 36 36 10 11 8 5 6 5 6 10 7 7 8 9 7 7 2 7 6 6 6 5 2 1 5 8 2 2 3 3 4 5 2 7 4 7 9 13 12 9 9 10
8 9 23 45 10 4 15 7 5 7 4 3 3 3 8 9 8 7 10 6 8 9 9 6 5 4 8 2 2 2 6 7 6 7 3 2 12 3 3 8 9 9 9 8 8
4 3 12 12 13 8 2 4 6 6 6 6 6 4 3 7 3 6 6 1 6 7 9 7 2 1 4 2 2 3 3 3 4 3 6 5 7 3 5 5 7 8 9 8 8
2 4 2 2 1 13 9 6 7 3 5 5 4 5 5 4 2 4 6 2 2 1 2 6 5 7 13 6 4 4 5 5 5 3 7 15 8 3 4 6 5 6 6 8 7
2 2 2 5 6 9 12 11 12 8 6 8 4 7 8 7 6 7 4 1 3 3 3 3 6 4 4 5 5 6 6 8 7 5 8 4 7 7 9 11 9 7 7 6 8
3 2 0 1 7 9 12 10 19 13 9 7 11 10 9 10 6 6 6 4 5 2 4 0 3 3 2 4 5 8 9 9 12 10 9 14 19 12 3 5 4 8 7 6 7
1 3 1 1 1 12 9 12 14 12 1 3 9 6 8 13 8 2 1 3 5 9 7 5 5 3 10 2 4 9 10 14 10 9 8 13 16 2 5 7 7 7 6 7 7

GFSSW_925_spd_024.txt.gz
Wind_Speed
3 3 4 3 4 4 4 5 6 7 9 10 11 12 13 15 15 9 3 1 0 3 3 4 4 4 4 4 4 3 4 2 4 6 2 1 3 1 1 1 4 3 0 7 13
6 6 5 5 5 5 5 6 6 7 9 11 12 13 14 15 13 4 1 2 2 5 4 3 3 4 4 3 3 4 3 6 3 2 2 2 1 4 4 5 2 4 5 16 14
8 8 7 6 6 6 7 6 7 9 10 13 13 13 12 13 4 2 1 2 4 5 4 5 6 3 3 2 3 2 3 3 3 4 1 1 1 1 2 3 2 5 6 12 17
10 9 8 8 7 7 7 7 8 9 11 14 14 13 10 6 2 2 0 3 8 5 6 4 5 3 2 1 1 1 3 4 3 0 2 2 0 2 4 2 4 7 5 5 9
11 10 9 8 7 6 7 8 10 11 12 14 14 10 4 3 5 3 1 4 8 5 3 3 3 3 2 2 2 2 2 1 4 5 6 2 4 4 7 4 9 10 11 9 9
13 10 9 8 7 7 8 9 11 12 13 13 12 6 1 3 2 1 0 4 5 6 3 4 4 4 3 2 2 0 3 7 7 3 3 4 1 2 2 6 9 9 8 7 11
13 12 10 9 8 8 9 10 12 13 14 13 9 2 2 9 2 2 3 3 5 5 4 4 4 3 3 2 3 1 4 7 5 1 4 6 1 5 4 5 7 6 7 8 11
14 13 12 10 9 8 9 11 13 14 13 8 3 2 6 3 3 5 5 5 6 5 4 4 5 5 3 3 6 4 4 4 3 3 0 3 7 3 7 7 5 6 7 7 10
16 15 13 11 10 9 10 11 13 11 4 2 1 2 7 1 3 5 6 6 7 6 5 6 5 3 4 5 4 5 3 4 8 3 2 3 7 2 4 6 6 6 6 6 6
18 16 14 12 10 9 9 10 10 5 2 1 1 2 1 3 3 6 6 10 4 5 4 6 5 3 3 4 5 6 4 4 6 1 1 1 8 9 6 5 7 7 6 5 6
20 18 15 13 10 8 7 4 3 3 3 8 5 3 3 4 5 3 5 7 4 6 5 2 4 8 13 10 3 5 5 6 3 3 2 6 6 12 5 6 7 6 6 6 6
21 19 16 12 11 9 5 2 3 1 6 10 4 5 3 6 3 2 9 5 4 5 5 4 7 10 4 5 5 3 4 6 5 3 4 7 8 11 2 2 3 8 7 6 4
23 20 16 15 11 11 10 8 2 1 2 6 5 4 4 9 5 7 10 4 4 6 7 7 5 6 6 5 6 5 8 4 7 3 3 2 6 8 3 3 6 6 5 5 7
25 22 19 15 7 11 6 13 8 2 2 6 4 4 3 6 3 2 6 4 3 10 7 6 4 5 4 6 7 6 8 7 5 3 4 1 5 5 4 4 4 7 7 7 6
28 25 24 24 6 8 3 12 11 3 5 3 3 2 2 5 6 2 1 3 7 7 7 7 5 4 6 6 7 7 5 6 4 3 1 3 2 7 6 6 7 6 5 4 3
31 28 27 27 15 4 10 17 6 3 10 3 3 5 5 2 2 2 2 4 2 4 1 5 2 6 7 2 4 6 5 6 4 3 2 9 8 4 5 4 4 5 8 9 7
33 31 33 25 12 20 17 7 3 7 1 6 5 6 4 6 4 4 5 6 6 5 6 2 5 3 3 4 2 4 5 1 3 2 6 1 2 5 2 2 1 11 10 8 7
34 33 37 31 20 24 14 2 10 9 9 4 6 4 8 8 5 6 7 5 6 3 3 7 4 10 6 7 6 7 7 5 6 3 4 2 6 4 2 4 4 7 9 8 7
36 38 32 38 35 30 8 10 13 7 7 11 4 5 5 5 6 5 8 6 9 13 8 5 4 1 3 4 7 5 5 4 4 2 2 4 4 3 1 3 4 8 10 9 8
35 26 34 37 41 26 10 22 11 7 8 5 17 10 13 9 8 9 10 6 6 12 3 6 2 0 2 3 4 4 6 3 2 2 5 4 4 5 6 7 6 8 10 9 8
34 7 18 40 40 8 14 13 15 5 6 9 12 9 7 9 10 7 8 3 6 6 5 5 3 1 3 5 9 3 2 3 3 4 5 3 5 5 6 7 11 11 10 10 9
15 10 29 47 12 5 17 16 7 10 9 8 4 5 9 10 9 8 13 7 9 9 10 7 4 4 8 2 2 3 7 7 6 7 3 2 12 1 3 9 8 8 8 8 8
2 3 21 38 15 13 6 14 12 9 14 8 9 5 4 8 4 6 6 1 8 9 10 9 3 2 5 1 2 5 5 3 3 3 7 5 8 1 1 5 8 9 9 9 9
3 3 1 2 2 23 20 18 15 4 9 5 5 3 5 5 2 7 7 2 4 4 3 6 6 8 9 6 5 4 6 5 6 6 8 14 17 4 5 7 6 7 7 8 8
2 1 1 5 12 10 21 16 21 11 5 9 3 12 15 6 8 7 5 3 2 1 2 4 5 3 2 3 4 6 7 9 10 11 12 14 15 7 11 9 9 7 6 5 7
4 4 1 1 1 12 16 21 24 14 12 6 5 12 14 10 11 11 9 5 5 0 4 2 3 3 2 2 4 6 11 11 15 6 6 4 13 7 6 5 4 8 8 6 8
1 3 1 3 2 7 4 10 15 12 0 3 10 7 12 11 4 4 4 4 7 8 7 7 6 4 8 4 6 10 13 15 7 5 10 14 14 3 5 8 8 8 6 7 8

GFSSW_925_spd_030.txt.gz
Wind_Speed
2 1 1 2 3 3 4 4 5 6 6 7 9 10 10 10 10 3 1 2 2 5 4 4 3 3 4 3 3 1 3 5 7 7 5 3 5 2 1 3 2 3 4 5 9
3 2 1 1 2 3 4 5 6 7 7 8 10 11 11 11 5 2 1 2 3 5 4 3 2 2 3 2 2 1 2 4 3 4 6 5 2 1 3 1 4 4 7 6 7
5 4 4 3 3 4 4 4 6 7 7 8 10 10 10 9 2 1 1 3 6 5 4 4 5 2 3 1 2 1 0 4 4 3 2 3 2 2 2 3 2 2 5 5 7
8 7 6 5 5 5 4 4 6 7 8 8 10 10 8 3 3 1 2 4 7 6 6 4 2 2 1 2 1 2 2 2 4 4 4 3 2 3 6 1 5 6 6 4 6
11 9 8 7 6 5 5 5 6 8 8 9 9 8 3 1 2 2 4 6 8 7 3 3 1 3 3 3 3 2 3 3 3 4 4 2 7 4 6 7 8 9 7 6 5
13 11 10 9 7 6 6 6 7 8 9 10 8 5 1 5 2 3 5 7 8 5 3 3 3 2 4 2 2 2 2 4 5 4 5 6 4 5 4 10 8 5 6 6 7
15 12 11 9 8 7 7 7 7 9 9 9 7 1 2 7 3 5 6 6 7 6 4 2 6 2 6 4 1 1 4 6 6 4 4 7 5 9 7 11 9 6 5 4 5
16 14 12 10 8 8 7 7 8 8 7 5 2 1 5 3 5 6 7 6 6 5 5 6 5 6 1 5 2 2 2 4 3 4 2 7 4 6 13 12 9 7 5 4 5
17 15 13 10 9 8 8 7 7 7 5 3 1 1 4 2 4 8 9 7 9 8 7 7 4 3 3 4 3 2 6 7 3 1 2 7 1 7 11 9 7 7 4 3 4
19 17 14 11 10 10 8 6 7 6 2 1 1 2 4 3 5 8 8 13 4 8 5 3 3 3 3 7 8 6 5 5 6 2 3 6 12 5 10 10 9 5 3 3 4
20 18 15 12 10 8 4 3 3 3 4 7 4 1 4 5 6 4 7 6 4 3 7 2 7 12 17 15 6 1 4 11 2 1 4 10 12 10 12 10 10 8 7 7 4
21 18 15 12 11 8 5 4 2 2 6 13 5 4 3 7 3 5 11 8 6 8 7 5 13 13 3 8 8 5 9 14 6 3 4 9 14 16 10 11 11 10 9 8 7
23 19 14 12 10 11 12 8 3 0 4 4 6 6 5 10 5 14 14 6 5 9 15 12 2 6 8 7 10 11 14 12 9 1 5 5 15 18 7 4 5 8 10 10 11
26 22 17 14 9 14 9 18 7 1 5 6 7 5 6 7 5 1 10 3 4 13 9 8 3 6 8 8 12 14 12 10 8 4 8 2 7 6 7 8 8 11 12 12 12
29 24 21 25 7 13 7 17 18 1 8 4 4 3 3 8 11 1 2 1 8 8 7 6 9 10 11 9 11 6 5 9 6 9 5 9 6 7 4 10 12 13 14 14 12
35 29 23 28 12 10 14 19 12 4 13 5 4 6 8 2 2 4 3 3 3 4 2 5 1 5 4 3 7 12 6 5 3 1 8 15 13 7 7 7 7 13 13 14 14
38 31 33 27 14 16 20 13 6 13 4 8 6 8 8 6 5 6 11 11 9 8 12 4 10 4 3 5 2 6 10 4 4 5 7 1 9 9 7 2 2 14 15 15 13
40 37 41 37 19 24 21 7 14 16 20 4 6 8 11 9 4 6 10 12 14 4 4 9 7 15 12 14 9 16 12 5 7 6 2 2 7 5 2 4 4 5 15 15 15
39 41 33 38 37 38 10 15 22 18 17 13 7 6 10 6 6 8 12 10 14 17 11 9 6 2 4 3 10 7 10 1 3 1 2 6 5 6 4 6 5 9 14 17 17
39 29 32 39 45 29 12 29 17 8 11 13 20 13 17 14 13 15 15 9 8 18 5 6 5 2 3 3 0 5 11 4 4 5 6 5 6 8 8 13 9 11 15 16 16
33 7 26 43 44 9 14 27 24 6 7 16 20 13 11 12 16 11 13 5 13 12 15 6 4 4 5 12 17 6 7 4 3 4 4 4 5 5 12 13 14 13 15 17 19
17 12 35 50 14 10 19 29 18 27 9 13 6 20 14 14 15 17 19 13 16 15 16 10 3 6 11 1 3 11 12 12 7 6 4 2 6 2 2 6 9 10 13 15 17
11 12 36 42 18 19 28 27 26 21 30 18 14 10 10 14 10 18 13 9 15 17 18 12 5 6 4 4 2 8 9 15 11 2 11 7 3 1 1 4 7 9 12 14 16
3 4 6 15 22 28 26 31 29 26 20 23 16 16 10 13 12 8 13 7 14 14 8 17 9 16 18 8 10 12 15 16 18 10 13 19 8 8 10 10 11 11 12 14 16
2 2 0 6 19 29 27 19 29 24 27 16 13 28 25 19 19 24 13 5 5 6 8 13 16 18 22 12 9 10 19 21 25 27 15 17 20 15 15 15 15 15 12 15 17
3 1 2 1 2 26 27 29 33 30 14 27 26 24 19 28 31 23 22 17 12 9 8 5 14 16 16 13 12 9 18 25 26 24 23 15 18 8 14 8 9 12 14 15 15
1 5 1 1 2 1 19 28 31 24 23 30 31 24 24 35 24 16 9 13 11 17 18 12 11 7 15 9 5 9 23 21 18 17 19 19 17 6 8 12 13 13 16 15 14

GFSSW_925_spd_033.txt.gz
Wind_Speed
4 3 2 0 1 2 3 4 5 6 7 9 11 12 12 11 11 4 2 1 2 4 3 2 2 1 1 2 2 3 4 6 5 7 5 7 7 4 1 3 2 3 5 5 4
4 2 2 2 2 3 3 4 5 6 7 8 11 12 13 13 6 4 3 3 3 5 2 5 4 3 2 1 1 4 4 2 3 2 4 8 6 5 5 6 5 5 6 5 5
6 5 4 3 3 4 5 6 6 7 7 9 11 12 13 11 5 2 1 3 5 5 2 2 1 2 2 2 0 0 5 2 4 3 1 5 4 3 6 7 2 6 7 5 5
9 7 6 5 5 5 5 6 7 8 8 9 11 12 12 4 4 1 2 4 5 4 3 3 3 3 3 3 1 5 1 1 2 3 2 4 1 5 7 3 7 6 7 5 5
12 10 8 7 6 6 7 7 7 8 9 10 11 10 5 5 2 1 3 5 5 4 3 2 4 2 5 1 3 5 3 2 3 3 4 2 8 8 7 7 7 7 6 6 5
14 12 10 9 8 7 7 7 7 8 9 10 9 7 4 8 0 2 4 6 4 4 3 3 3 2 2 2 5 2 3 4 5 8 7 7 10 3 7 12 8 7 6 4 5
15 14 12 10 9 8 7 8 8 8 8 9 7 3 6 8 2 3 4 3 3 3 4 1 1 4 1 2 1 2 6 8 11 9 5 7 10 14 7 10 10 9 6 5 5
16 15 13 11 10 9 8 8 8 8 8 6 5 3 6 4 3 4 5 3 3 2 2 2 1 2 3 3 3 4 4 7 7 8 3 7 10 7 10 12 12 10 7 5 4
18 16 14 12 10 10 9 8 8 8 7 5 3 3 5 1 4 6 5 4 6 4 4 4 2 2 4 6 6 8 10 9 5 7 5 11 5 6 10 12 12 10 9 7 6
20 18 16 13 11 10 9 7 8 8 4 3 2 4 6 2 4 6 4 9 3 9 5 5 5 7 8 10 10 9 11 9 10 5 7 10 14 7 11 13 12 11 9 8 7
23 19 17 15 12 9 4 4 5 4 6 8 3 3 4 5 5 5 6 8 6 8 9 8 9 13 17 16 17 8 9 13 9 3 4 13 15 14 13 14 15 15 12 10 9
26 21 18 15 12 8 5 5 4 3 7 16 12 8 3 6 4 8 10 10 9 13 11 5 15 17 10 9 12 12 13 16 14 3 4 12 17 16 16 17 19 17 14 12 10
27 22 19 15 11 11 12 7 1 2 6 9 9 8 6 11 7 14 16 7 9 15 15 17 3 4 9 8 11 14 15 15 14 2 11 13 20 24 24 21 17 10 12 12 12
28 24 21 16 10 11 9 12 4 1 6 14 9 7 8 8 8 6 20 5 6 15 14 13 9 6 9 14 13 15 13 13 12 7 10 4 9 9 7 13 13 12 12 13 12
32 29 28 29 5 14 7 13 11 3 8 3 8 3 6 14 11 6 8 6 13 10 8 5 9 12 13 16 10 8 2 6 9 11 13 16 8 11 16 17 16 14 14 14 13
36 35 32 31 12 13 14 19 10 5 16 6 6 8 10 12 4 6 7 1 2 7 7 8 2 6 6 4 6 9 5 3 3 6 9 17 16 9 10 8 12 14 15 16 15
40 39 41 34 21 18 23 15 5 13 6 11 7 9 17 10 9 10 15 15 14 9 16 13 14 6 5 6 3 12 8 4 5 6 8 2 12 15 6 7 6 16 18 18 16
43 44 47 40 26 27 25 8 10 34 33 10 5 10 14 13 9 10 13 13 23 18 8 12 9 22 16 20 9 20 16 6 6 6 4 2 8 6 3 8 5 11 16 16 16
45 45 39 44 36 38 13 17 20 42 22 17 8 8 14 11 7 11 15 16 15 22 15 13 9 7 9 5 14 7 12 10 4 2 4 7 10 8 7 8 9 11 16 18 17
38 29 35 42 41 29 16 22 26 25 23 19 28 19 18 16 13 16 17 13 14 24 14 5 5 6 5 3 4 9 9 5 6 5 8 10 14 10 9 15 15 15 17 17 17
32 6 19 41 43 11 17 19 31 24 24 26 25 22 22 15 18 13 10 7 19 20 20 9 6 6 7 13 18 8 9 9 5 8 5 6 9 9 15 16 19 17 17 19 19
9 11 28 48 15 9 17 40 18 26 20 12 15 23 20 18 15 17 18 13 19 18 16 12 3 9 13 2 10 16 14 20 7 6 5 6 14 3 5 12 15 17 16 17 18
3 8 31 42 16 15 20 22 24 20 30 23 17 16 19 18 10 21 15 13 16 18 20 13 6 3 6 3 1 9 16 13 18 1 16 8 7 4 4 7 10 13 15 15 16
3 5 7 11 18 25 22 25 24 22 25 28 17 12 17 22 18 12 19 7 15 15 7 15 7 14 19 10 9 10 15 21 19 12 18 27 17 8 11 13 13 12 14 17 16
4 2 2 5 16 26 29 23 32 26 27 24 21 29 25 18 21 25 14 6 3 6 6 11 13 17 24 22 17 11 18 23 28 35 16 27 25 16 16 16 17 15 13 14 14
5 4 1 3 5 21 29 30 32 33 22 28 26 32 26 26 27 18 21 16 10 9 8 2 11 17 25 23 22 25 20 25 30 31 30 30 29 10 17 13 11 13 13 14 15
4 2 5 3 4 6 12 31 33 26 25 33 36 27 27 38 31 26 15 8 10 15 14 11 7 8 17 15 18 6 39 23 27 30 26 28 29 5 10 13 14 13 12 14 15

GFSSW_925_spd_036.txt.gz
Wind_Speed
2 1 1 2 2 2 3 4 5 5 6 8 10 11 13 13 11 5 1 1 1 1 0 2 3 2 4 2 2 2 2 3 1 1 5 7 5 1 1 4 5 5 4 6 6
3 2 1 2 3 4 4 4 5 6 7 9 10 12 13 14 8 5 2 3 2 2 2 3 2 1 2 1 1 1 2 6 7 7 4 7 5 9 3 6 5 6 9 9 9
5 4 3 3 3 3 4 5 6 7 8 9 11 12 13 11 3 3 2 1 2 4 2 3 5 3 3 2 2 1 2 4 6 8 9 6 1 2 3 4 4 8 10 8 12
8 7 6 5 5 5 5 6 7 8 8 10 12 13 12 4 3 0 1 2 4 3 1 2 5 3 2 2 3 4 2 5 4 3 3 3 2 1 6 4 8 10 13 10 10
11 10 9 7 7 7 7 7 8 8 9 10 12 12 5 3 2 1 2 4 4 4 3 3 5 3 4 2 1 4 3 2 5 2 2 4 3 5 3 9 10 9 10 9 9
13 12 11 9 9 8 7 8 8 9 9 10 11 9 3 5 1 1 2 5 3 1 2 3 5 6 5 2 1 5 4 4 6 5 3 2 4 3 5 12 10 8 9 8 9
13 13 12 11 10 9 8 8 9 8 9 8 8 6 3 4 2 1 4 4 4 1 1 3 4 3 5 2 3 2 4 7 8 6 1 3 7 10 7 9 10 8 9 8 8
15 14 13 12 11 10 9 9 9 8 8 7 6 3 5 5 4 5 5 3 3 1 1 2 0 2 3 2 3 3 3 3 4 10 4 4 7 8 12 10 9 9 9 8 6
17 15 13 12 11 10 10 10 9 9 8 5 3 2 4 2 3 7 7 5 6 5 3 2 1 1 1 3 4 5 5 7 4 8 6 7 5 4 6 8 8 9 9 8 7
19 16 14 12 10 10 10 9 9 10 5 2 3 3 5 2 5 5 6 9 3 7 4 4 3 3 3 5 5 5 5 6 5 7 5 7 11 6 9 9 10 10 9 9 8
19 19 15 13 11 8 6 6 4 3 6 8 6 1 4 4 5 6 5 7 5 4 6 6 4 7 12 11 10 9 6 8 6 4 4 9 9 11 12 9 10 10 10 10 8
22 20 16 13 11 7 5 5 2 1 6 16 12 6 7 8 4 7 10 7 5 7 8 3 9 12 9 6 6 9 7 9 7 8 2 7 12 10 7 14 16 14 11 11 10
25 23 18 13 10 10 11 8 3 1 5 6 13 7 6 11 7 13 9 5 6 8 10 11 3 3 11 3 4 6 7 7 7 4 4 5 8 13 12 16 15 11 7 12 15
30 27 20 14 9 13 10 20 5 2 4 7 8 6 8 6 6 6 21 4 6 11 9 9 12 3 6 7 8 7 4 11 5 3 4 7 6 8 8 12 16 11 9 11 13
34 30 26 31 5 15 7 15 14 1 5 2 8 2 7 10 10 0 2 2 9 8 7 5 7 8 7 6 8 4 6 3 2 5 4 4 6 7 15 16 12 11 11 10 11
36 34 31 31 19 14 13 23 7 4 11 4 5 6 7 6 3 3 2 2 2 5 4 2 2 3 4 4 3 9 5 2 1 1 5 13 12 6 12 15 7 10 11 11 12
41 40 39 33 20 16 22 13 4 7 4 10 6 8 9 8 6 6 9 9 9 6 9 7 8 4 4 5 4 4 6 2 2 1 7 2 9 15 5 2 3 15 14 11 12
43 43 44 40 25 25 26 11 8 22 30 5 6 7 8 8 5 7 8 8 15 10 3 11 6 16 9 12 7 10 8 5 6 4 4 4 7 6 3 6 4 11 13 12 13
35 41 32 41 38 31 10 11 16 18 15 16 8 6 8 6 6 8 10 10 12 20 13 8 7 5 5 3 9 5 7 9 3 2 1 6 7 6 5 4 2 10 13 14 14
20 22 28 40 41 27 15 17 15 23 10 25 29 15 12 13 9 12 13 8 12 22 12 4 3 2 4 3 3 4 6 3 1 2 6 6 11 8 6 11 9 12 17 16 15
14 6 15 41 42 11 17 12 19 13 18 16 24 15 22 11 16 11 10 4 18 15 21 3 0 1 6 8 13 4 4 5 4 4 4 4 7 3 15 16 19 15 16 17 17
4 6 22 48 14 8 15 30 15 14 16 13 17 21 17 21 14 17 15 9 15 16 17 9 3 5 9 2 1 3 8 10 5 6 7 2 19 2 4 12 15 16 15 15 16
4 2 21 41 15 14 14 24 20 14 23 16 13 17 19 17 18 21 11 8 13 18 18 12 5 1 2 1 3 6 7 16 14 1 20 5 12 3 6 6 9 13 14 15 16
3 5 6 8 9 21 16 19 23 20 23 20 22 13 6 12 21 8 16 6 16 15 10 15 6 14 18 7 7 7 10 19 18 11 7 25 19 2 5 5 7 11 15 15 16
4 5 4 4 12 22 25 17 28 21 22 18 16 23 23 15 19 28 9 2 3 8 8 12 8 9 20 18 7 7 11 21 25 27 15 27 24 20 12 13 16 10 12 15 15
3 2 2 2 3 4 20 27 28 28 18 24 25 30 23 29 30 29 19 12 7 5 8 2 8 13 23 18 9 14 18 19 23 24 27 32 34 5 10 13 9 14 16 16 17
4 3 2 2 10 12 4 5 12 23 20 28 32 25 25 34 27 20 9 4 5 11 8 8 5 5 21 8 8 10 38 22 24 24 25 26 37 12 15 14 15 17 17 17 16

GFSSW_925_spd_042.txt.gz
Wind_Speed
4 3 4 3 4 4 5 5 6 6 7 8 9 10 11 11 5 2 1 0 1 1 2 2 2 3 3 4 4 3 4 1 0 6 4 2 4 0 3 6 4 4 4 4 25
1 2 2 3 4 4 5 5 6 8 8 9 10 11 12 11 3 3 1 2 0 1 2 4 3 3 3 2 3 5 4 4 2 3 5 6 5 7 4 4 3 3 4 18 23
1 1 2 3 3 4 5 6 7 7 9 10 11 12 13 8 2 2 2 1 2 4 1 0 1 2 3 3 2 3 4 3 2 1 3 5 2 3 8 3 7 9 10 11 14
5 3 2 3 4 5 5 6 6 8 9 10 12 12 11 2 2 1 1 3 4 3 2 1 3 3 3 2 1 3 1 3 3 1 3 6 2 3 5 5 2 9 13 9 11
7 6 5 4 4 5 6 7 7 8 9 11 11 13 4 3 3 1 2 5 5 4 3 2 3 2 4 2 2 2 1 1 3 4 2 1 3 4 4 1 5 15 11 9 11
9 9 7 7 6 6 6 7 8 9 10 10 11 11 3 2 1 1 3 5 4 2 3 4 2 1 3 2 3 4 0 3 4 3 3 4 2 2 2 6 8 9 9 8 12
11 9 9 8 8 7 7 7 7 8 9 9 9 9 2 7 3 3 4 4 3 2 3 3 2 3 1 2 1 1 3 4 5 4 4 4 5 9 5 8 10 9 8 8 12
11 12 11 10 9 8 8 7 6 7 7 7 8 4 5 3 6 5 4 3 3 3 4 3 3 4 3 1 4 2 3 2 3 7 3 5 7 4 8 12 11 10 8 8 8
11 12 12 12 9 9 9 8 7 7 6 6 3 2 7 1 4 7 6 5 5 4 3 4 3 3 4 5 4 4 3 4 7 6 3 5 6 3 6 9 10 9 9 9 8
13 12 12 12 9 7 8 7 7 10 1 2 1 3 3 3 3 7 7 10 3 4 4 5 5 3 3 4 5 6 4 5 5 4 2 3 11 6 6 8 12 10 10 10 11
17 13 14 11 9 6 5 2 2 2 3 7 6 4 4 4 5 4 6 6 4 5 5 0 4 7 12 10 5 4 4 4 3 4 5 8 9 11 9 7 10 10 12 14 15
19 14 18 12 6 5 4 2 4 2 5 11 6 6 5 8 3 4 9 5 4 5 5 4 8 11 6 5 5 4 4 7 6 4 6 7 11 10 6 8 12 17 14 17 9
19 23 22 14 8 7 9 9 6 2 2 6 8 7 6 13 8 10 13 5 4 7 9 8 6 5 8 5 6 6 7 5 8 1 3 3 7 10 10 7 9 11 16 14 20
10 23 21 17 9 7 7 18 8 3 2 6 6 7 7 7 6 9 20 7 4 12 7 6 6 5 5 6 8 7 7 6 4 2 5 3 8 5 6 11 9 16 13 17 15
11 11 23 28 6 9 2 12 8 3 4 4 3 1 2 9 4 1 4 3 9 8 7 9 7 9 7 7 9 7 4 4 2 3 2 3 4 6 4 8 15 20 12 14 15
10 11 20 27 8 5 5 20 9 1 11 3 2 3 6 2 2 3 3 3 3 5 3 4 0 6 7 3 6 6 5 6 4 3 4 9 8 5 7 12 8 9 7 13 15
12 10 17 22 9 13 18 10 4 6 5 5 4 5 2 4 3 4 7 8 8 6 10 2 4 2 3 5 3 4 7 2 3 1 8 2 5 14 9 10 11 13 8 10 10
17 16 19 30 18 23 23 2 6 7 8 5 4 3 5 6 3 5 7 7 8 2 3 9 7 12 7 10 8 8 8 6 7 5 5 1 7 6 13 12 6 9 8 7 9
19 16 15 22 26 33 8 5 11 10 7 9 5 5 5 4 6 4 6 6 8 11 11 7 6 1 1 4 11 6 8 4 1 1 1 6 8 7 10 10 10 11 4 6 8
11 10 17 19 32 24 7 14 9 9 8 8 15 8 11 7 8 9 10 6 6 14 4 6 2 1 2 4 2 6 8 2 2 2 6 6 6 8 5 12 14 12 9 9 8
7 3 9 26 33 9 9 9 8 5 4 11 18 14 12 10 9 7 8 3 9 9 19 4 4 1 4 7 11 3 5 4 5 5 5 2 7 7 13 12 12 13 10 10 12
5 6 7 34 10 4 16 13 10 7 7 3 3 17 13 11 10 10 16 8 9 10 12 9 3 5 9 3 2 1 4 7 5 6 6 3 18 5 5 6 8 10 8 8 10
4 4 10 24 12 17 8 19 17 9 16 9 10 8 5 10 6 12 8 7 9 11 11 9 4 2 5 4 2 6 8 16 2 3 15 5 13 3 6 5 7 9 7 6 8
4 4 5 7 14 18 24 16 28 16 16 12 14 5 12 13 8 5 7 7 11 11 10 13 6 11 16 6 7 7 10 12 18 10 10 20 21 6 5 7 7 7 6 8 9
5 5 4 6 13 19 22 14 28 18 17 20 13 21 23 14 17 25 22 7 6 8 9 14 13 18 25 7 5 5 15 22 24 33 11 34 20 24 13 10 11 8 6 7 9
4 5 4 8 3 8 23 17 6 24 19 18 21 25 23 24 22 21 20 16 14 4 12 3 15 18 23 19 9 11 11 25 29 30 26 32 31 4 6 5 5 10 10 11 13
15 19 4 10 11 10 5 12 20 22 11 16 24 24 24 26 23 20 1 8 6 17 14 8 13 11 19 14 4 6 39 12 15 21 19 23 39 6 13 14 15 13 11 13 16

GFSSW_925_spd_045.txt.gz
Wind_Speed
4 4 4 4 4 3 2 3 4 5 7 7 9 11 11 11 4 1 1 1 1 0 2 2 2 3 3 4 4 3 5 3 6 7 4 4 4 2 2 6 2 2 5 4 26
3 2 2 2 3 2 2 3 4 5 7 8 9 11 12 10 1 1 1 1 1 2 1 3 2 4 4 3 4 5 4 8 5 4 4 4 3 8 4 4 1 1 2 14 26
4 2 1 1 2 2 3 5 6 7 8 9 10 11 12 5 1 1 1 1 3 2 1 1 1 2 4 3 2 2 4 4 3 3 3 4 2 3 7 4 7 9 9 11 17
3 2 2 1 1 2 3 5 7 8 9 11 11 13 8 1 3 1 1 2 3 2 1 2 4 3 3 3 2 4 1 3 1 1 3 4 4 4 6 6 1 8 14 12 11
5 4 3 3 3 3 3 5 6 8 9 11 12 13 3 2 1 1 2 4 4 3 3 2 3 3 4 3 2 2 1 0 1 1 1 1 3 5 7 2 2 9 12 10 11
7 7 6 5 5 4 4 4 5 7 8 10 11 11 2 1 0 1 2 4 3 2 2 3 3 2 4 2 3 1 1 2 3 2 2 4 3 1 5 4 5 9 10 9 12
7 8 10 8 6 7 6 5 5 6 6 7 9 8 2 4 1 1 2 2 2 1 3 3 3 3 3 3 0 1 3 5 4 4 3 4 6 10 3 4 7 9 7 7 11
6 6 6 9 9 8 7 7 7 7 6 6 7 3 4 3 3 2 2 2 3 3 4 3 4 5 3 3 6 3 5 3 2 5 1 5 8 7 7 9 10 9 8 8 9
10 7 7 6 10 8 8 7 8 8 8 6 1 2 6 0 2 3 3 1 4 4 5 5 5 3 4 5 4 6 3 4 8 7 3 5 6 3 2 7 9 9 9 9 8
13 12 9 7 8 8 7 6 6 8 2 1 1 3 1 3 3 5 5 6 4 4 4 6 5 4 3 4 5 6 4 4 5 3 3 3 12 10 3 8 13 8 10 10 11
15 14 12 8 6 5 3 1 2 2 2 7 4 2 2 3 4 4 5 5 3 7 4 3 3 7 12 9 4 5 4 5 4 3 4 7 10 13 7 6 10 10 11 14 17
14 17 14 11 5 4 2 2 2 0 5 9 3 4 3 6 3 3 9 5 3 4 5 4 7 10 4 3 3 2 3 6 5 4 5 8 12 11 5 8 13 16 15 17 13
7 13 16 12 6 6 6 7 2 0 1 6 6 6 6 11 7 9 11 5 4 6 8 8 5 4 8 4 5 5 6 5 8 3 3 5 8 9 10 7 7 11 19 15 19
8 7 13 14 5 6 5 6 5 1 2 6 5 7 5 7 5 6 17 6 3 12 7 6 4 6 5 5 8 6 8 6 5 2 4 2 6 6 6 11 8 16 15 20 15
8 7 8 19 7 7 2 8 9 1 4 2 2 1 3 8 4 1 4 3 8 8 7 8 7 7 6 7 8 7 4 6 2 3 3 4 4 4 1 8 13 16 17 14 13
8 6 4 22 8 5 6 15 6 5 9 3 2 3 5 2 2 2 3 3 4 5 2 4 0 6 7 2 6 7 5 5 4 2 4 9 9 6 7 9 6 12 13 10 10
11 10 7 12 4 12 16 6 1 6 3 5 5 5 4 4 2 3 6 7 8 6 12 2 5 3 4 5 2 4 6 2 4 1 8 4 5 18 9 10 13 14 12 7 3
15 17 13 16 12 17 15 3 4 6 7 4 2 5 5 6 4 6 7 6 8 2 3 9 7 11 7 9 8 8 8 6 7 4 5 3 7 6 10 11 9 9 8 4 5
16 15 9 15 19 27 6 6 8 6 7 9 4 2 5 4 4 3 6 5 10 12 11 7 6 2 2 3 10 5 6 4 1 2 2 6 10 8 11 13 9 14 7 7 8
11 9 11 10 22 18 8 14 10 10 7 6 15 10 10 8 7 7 9 5 6 14 3 5 3 1 1 3 2 6 7 3 2 2 5 6 7 8 6 9 15 11 11 8 7
7 3 7 20 23 6 11 8 8 5 7 9 15 11 9 9 11 7 8 4 6 6 17 4 4 1 3 7 11 4 5 2 4 5 5 3 9 8 14 10 10 12 10 7 9
3 4 3 25 9 5 15 8 5 5 3 5 4 13 10 9 9 8 16 10 9 8 12 9 4 5 9 1 2 2 2 9 4 6 5 2 18 3 8 10 8 10 9 4 7
3 3 10 19 9 13 14 22 22 8 12 7 8 8 6 13 8 11 8 6 10 12 12 9 4 1 5 3 4 5 7 10 2 3 17 4 16 4 2 4 8 9 6 4 6
2 3 3 3 9 13 20 20 22 14 14 17 9 6 5 10 13 6 7 6 11 10 7 9 5 9 15 4 6 5 7 12 14 7 14 18 31 7 4 7 7 9 8 4 7
3 4 4 5 12 16 15 6 23 22 16 19 19 22 21 17 11 18 7 4 3 6 7 9 8 7 19 15 5 7 8 17 23 32 13 35 18 24 14 12 10 8 6 7 8
3 3 3 6 8 9 22 22 25 13 11 14 22 24 26 23 22 22 19 11 11 4 7 3 8 12 24 25 17 17 9 20 27 29 24 34 31 4 5 3 7 13 11 10 9
6 8 3 8 9 6 12 17 24 17 11 18 19 18 22 26 23 21 9 16 11 20 13 11 7 7 14 17 13 7 31 25 16 20 23 24 38 5 18 16 16 17 9 11 12

GFSSW_925_spd_048.txt.gz
Wind_Speed
5 5 4 3 2 1 2 3 3 3 4 6 7 9 10 10 1 1 1 0 1 2 2 2 4 5 4 4 4 3 5 3 7 7 4 4 3 0 1 6 2 2 3 2 18
5 4 3 3 2 1 2 2 4 6 7 7 8 10 12 8 1 3 2 2 1 1 2 4 3 5 4 3 4 5 4 8 5 5 3 4 3 7 4 3 3 3 2 4 23
5 4 4 3 2 2 2 4 5 6 7 8 10 12 11 4 2 1 2 1 1 2 3 3 4 3 3 3 3 3 4 5 3 2 3 5 2 5 7 4 7 9 6 11 17
4 4 3 3 2 0 2 4 5 7 8 9 10 11 7 3 2 3 3 1 2 2 3 4 5 3 3 2 1 4 1 2 1 0 3 4 5 4 6 6 1 8 7 11 11
5 4 4 4 2 1 2 3 4 6 8 9 10 10 2 3 1 3 2 1 2 2 4 3 3 4 5 3 2 3 0 1 1 2 1 2 3 6 7 6 3 5 10 11 11
7 7 7 6 5 4 3 4 5 7 8 9 11 8 2 1 0 1 0 2 3 3 3 4 3 4 5 2 3 2 1 2 2 2 2 1 1 1 4 3 3 6 11 10 12
7 7 9 10 9 7 6 5 6 7 8 8 9 7 3 5 1 1 1 2 4 3 3 4 3 3 2 3 1 3 1 4 2 2 2 4 6 11 4 2 5 7 8 8 12
7 7 8 8 10 10 9 7 6 7 7 8 7 4 4 1 2 3 3 4 4 5 6 4 6 5 4 3 6 4 5 2 2 4 2 4 8 10 2 6 10 8 8 9 10
8 8 8 8 9 10 10 10 7 7 7 6 3 3 6 0 2 4 3 4 5 6 7 5 6 4 5 4 5 6 2 3 7 6 3 4 6 4 1 5 9 9 9 9 9
10 9 9 9 9 10 7 7 7 7 2 2 1 3 0 1 2 4 5 7 5 4 5 7 6 4 3 4 5 5 3 4 4 2 2 4 11 10 7 5 10 9 9 10 10
10 12 10 10 9 9 6 2 3 2 1 6 3 1 1 2 3 3 4 6 3 7 4 3 4 7 11 6 2 5 3 4 4 3 3 7 9 11 9 6 11 10 10 14 15
6 11 12 11 9 7 4 1 2 1 4 5 2 4 3 5 2 3 8 5 3 4 5 5 7 9 4 4 3 2 3 6 5 3 2 8 14 13 7 8 10 14 14 16 11
6 6 10 14 9 7 6 4 2 1 0 6 5 5 5 9 6 9 10 4 4 5 7 7 4 4 7 4 5 5 6 5 6 4 4 5 8 8 7 5 6 11 15 12 17
5 4 6 13 6 6 5 2 3 1 2 6 5 6 4 7 4 2 13 6 2 11 7 6 3 4 3 4 8 5 7 5 3 2 4 1 6 7 7 9 9 15 13 19 18
7 4 1 14 6 5 1 6 7 1 4 3 3 2 3 6 4 2 1 3 9 8 7 8 8 5 5 6 7 6 4 6 3 3 3 1 2 5 2 8 14 15 15 15 13
7 6 0 18 6 3 4 14 4 4 10 3 2 4 5 2 3 2 2 4 4 5 2 4 1 6 8 2 4 8 6 6 4 2 5 11 8 7 6 9 6 11 14 11 7
8 8 6 3 2 11 15 7 4 4 4 3 4 4 3 5 2 3 6 5 7 5 9 1 5 3 3 5 3 3 6 2 3 1 9 3 4 16 6 10 9 13 14 7 6
11 14 13 10 4 16 12 3 6 5 6 2 3 2 6 6 4 4 7 6 7 2 3 8 7 11 7 9 8 9 8 6 7 4 5 3 8 8 10 9 10 7 12 6 7
11 14 9 14 12 24 4 8 7 5 5 8 0 4 3 2 4 4 6 5 8 10 9 6 6 1 3 2 9 6 8 3 1 2 3 5 8 9 8 12 10 13 8 11 8
6 6 7 9 12 14 7 15 8 9 8 4 12 13 10 6 6 7 9 6 6 13 3 5 4 2 0 2 2 4 6 3 2 3 5 6 7 8 7 9 12 10 11 9 5
2 2 5 17 15 4 12 7 8 5 10 7 8 6 7 8 8 6 7 4 6 6 18 5 4 1 3 7 10 3 4 1 4 5 5 3 9 8 10 12 9 10 8 6 6
2 2 3 20 7 3 12 11 7 4 4 10 5 11 10 8 8 8 14 10 7 10 12 8 4 5 10 2 3 1 5 7 4 5 4 2 15 5 8 7 6 10 7 3 4
2 3 4 16 7 11 8 15 15 3 9 5 8 10 7 13 10 12 9 6 10 10 12 9 4 2 7 2 3 5 6 7 4 3 13 5 15 1 1 6 5 8 8 5 5
2 2 3 3 3 7 14 20 14 9 18 7 5 10 4 11 11 6 9 5 10 10 7 8 5 10 15 5 4 6 8 13 14 4 21 14 34 10 2 4 7 8 10 9 8
4 4 4 3 9 10 6 4 17 15 12 17 20 16 10 10 12 17 8 2 3 3 6 9 8 9 22 8 3 5 5 10 17 29 12 31 20 31 15 14 15 11 8 10 9
4 3 1 2 2 4 8 20 18 14 5 16 20 17 21 19 13 8 20 6 6 5 9 5 6 10 20 17 9 9 8 14 23 23 17 30 28 32 20 7 8 11 13 14 10
8 5 2 3 4 4 8 7 7 9 17 18 16 15 17 20 21 19 12 10 9 10 9 10 8 7 16 15 7 13 25 25 21 24 21 21 36 21 21 17 19 16 11 13 13